Milton, FL

2:20 PM CDT on May 23, 2017 (GMT -0500)
Whiting Field Naval Air Station (South)

Weather History for KNDZ - May, 2013

Change the Weather History Date:

Saturday, May 11, 2013

  Actual Average (KNSE) Record (KNSE)
Temperature  
Mean Temperature 66 °F -  
Max Temperature 75 °F 82 °F 93 °F (2011)
Min Temperature 60 °F 61 °F 48 °F (1997)
Cooling Degree Days 2    
Growing Degree Days 16 (Base 50)    
Moisture  
Dew Point 63 °F    
Average Humidity 88    
Maximum Humidity 100    
Minimum Humidity 71    
Precipitation  
Precipitation 0.00 in - - ()
Sea Level Pressure  
Sea Level Pressure 29.99 in    
Wind  
Wind Speed 2 mph (South)    
Max Wind Speed 12 mph    
Max Gust Speed 17 mph    
Visibility 7 miles    
Events Fog , Rain    
Averages and records for this station are not official NWS values.
T = Trace of Precipitation, MM = Missing Value Source: NWS Daily Summary

Daily Weather History Graph

Daily Weather History Graph

Search for Another Location

Airport or City:

Trip Planner

Search our weather history database for the weather conditions in past years. The results will help you decide how hot, cold, wet, or windy it might be!

Date:

Astronomy

May. 11, 2013 Rise Set
Actual Time 5:55 AM CDT 7:33 PM CDT
Civil Twilight 5:29 AM CDT 7:59 PM CDT
Nautical Twilight 4:58 AM CDT 8:31 PM CDT
Astronomical Twilight 4:25 AM CDT 9:04 PM CDT
Moon 7:05 AM CDT (5/11) 9:10 PM CDT (5/11)
Length of Visible Light 14h 29m
Length of Day
13h 37m
Waxing Crescent, 3% of the Moon is Illuminated
May 11
Waxing Crescent
May 17
First Quarter
May 24
Full
May 31
Last Quarter
Jun 8
New

Hourly Weather History & Observations

Time (CDT) Temp. Dew Point Humidity Pressure Visibility Wind Dir Wind Speed Gust Speed Precip Events Conditions
12:56 AM 66.0 °F 62.1 °F 87% 30.00 in 10.0 mi NNW 4.6 mph - N/A   Scattered Clouds
1:06 AM 64.4 °F 62.6 °F 94% 30.03 in 10.0 mi North 3.5 mph - N/A   Mostly Cloudy
1:20 AM 64.4 °F 62.6 °F 94% 30.03 in 10.0 mi NNW 4.6 mph - N/A   Scattered Clouds
1:56 AM 64.9 °F 62.1 °F 90% 29.99 in 10.0 mi Calm Calm - N/A   Clear
2:35 AM 62.6 °F 60.8 °F 94% 30.01 in 1.8 mi Calm Calm - N/A   Clear
2:45 AM 62.6 °F 60.8 °F 94% 30.01 in 3.0 mi Calm Calm - N/A   Clear
2:56 AM 62.1 °F 61.0 °F 96% 29.96 in 2.5 mi Calm Calm - N/A   Clear
3:00 AM 62.6 °F 60.8 °F 94% 30.00 in 0.8 mi Calm Calm - N/A   Clear
3:12 AM 62.6 °F 60.8 °F 94% 30.00 in 2.0 mi Calm Calm - N/A   Clear
3:24 AM 60.8 °F 59.0 °F 94% 29.99 in 0.8 mi Calm Calm - N/A   Clear
3:33 AM 62.6 °F 60.8 °F 94% 30.00 in 2.0 mi Calm Calm - N/A   Clear
3:40 AM 60.8 °F 59.0 °F 94% 30.00 in 0.8 mi Calm Calm - N/A   Mist
3:56 AM 61.0 °F 59.0 °F 93% 29.95 in 0.5 mi South 4.6 mph - N/A Fog Fog
4:25 AM 60.8 °F 60.8 °F 100% 29.99 in 1.2 mi South 4.6 mph - N/A   Scattered Clouds
4:49 AM 62.6 °F 60.8 °F 94% 29.98 in 3.0 mi Calm Calm - N/A   Clear
4:56 AM 62.1 °F 60.1 °F 93% 29.94 in 7.0 mi SSW 3.5 mph - N/A   Clear
5:56 AM 62.1 °F 60.1 °F 93% 29.95 in 6.0 mi Calm Calm - N/A   Clear
6:04 AM 60.8 °F 60.8 °F 100% 29.99 in 1.8 mi Calm Calm - N/A   Partly Cloudy
6:07 AM 60.8 °F 60.8 °F 100% 29.99 in 0.8 mi Calm Calm - N/A   Mist
6:32 AM 62.6 °F 60.8 °F 94% 29.99 in 1.2 mi Calm Calm - N/A   Scattered Clouds
6:35 AM 62.6 °F 60.8 °F 94% 30.00 in 3.0 mi Calm Calm - N/A   Scattered Clouds
6:56 AM 62.1 °F 60.1 °F 93% 29.96 in 7.0 mi Calm Calm - N/A   Clear
7:56 AM 64.9 °F 63.0 °F 93% 29.98 in 10.0 mi South 3.5 mph - N/A   Partly Cloudy
8:56 AM 68.0 °F 64.9 °F 90% 30.01 in 10.0 mi Calm Calm - N/A   Overcast
9:43 AM 66.2 °F 64.4 °F 94% 30.07 in 2.5 mi WSW 3.5 mph - N/A Rain Heavy Rain
9:52 AM 66.2 °F 64.4 °F 94% 30.07 in 5.0 mi Calm Calm - N/A Rain Rain
9:56 AM 66.9 °F 64.9 °F 93% 30.02 in 4.0 mi Calm Calm - N/A Rain Rain
10:56 AM 68.0 °F 64.9 °F 90% 29.97 in 10.0 mi SSE 5.8 mph - N/A Rain Light Rain
11:36 AM 69.8 °F 66.2 °F 88% 30.00 in 10.0 mi SSE 11.5 mph 17.3 mph N/A   Mostly Cloudy
11:45 AM 69.8 °F 66.2 °F 88% 30.02 in 10.0 mi South 10.4 mph - N/A   Mostly Cloudy
11:56 AM 69.1 °F 66.0 °F 90% 29.99 in 10.0 mi Variable 4.6 mph - N/A   Mostly Cloudy
12:11 PM 69.8 °F 64.4 °F 83% 30.03 in 10.0 mi Variable 3.5 mph - N/A   Overcast
12:56 PM 72.0 °F 64.9 °F 78% 29.98 in 10.0 mi Calm Calm - N/A   Scattered Clouds
1:49 PM 73.4 °F 64.4 °F 73% 30.03 in 10.0 mi South 3.5 mph - N/A   Mostly Cloudy
1:56 PM 73.0 °F 64.9 °F 76% 29.99 in 10.0 mi South 4.6 mph - N/A   Overcast
2:31 PM 73.4 °F 64.4 °F 73% 30.01 in 10.0 mi SSE 5.8 mph - N/A   Mostly Cloudy
2:56 PM 73.9 °F 64.9 °F 73% 29.96 in 10.0 mi South 5.8 mph - N/A   Overcast
3:10 PM 73.4 °F 64.4 °F 73% 29.99 in 10.0 mi South 5.8 mph - N/A   Overcast
3:25 PM 73.4 °F 64.4 °F 73% 29.99 in 10.0 mi Variable 4.6 mph - N/A   Overcast
3:56 PM 73.9 °F 64.0 °F 71% 29.94 in 10.0 mi SSW 3.5 mph - N/A   Mostly Cloudy
4:08 PM 73.4 °F 64.4 °F 73% 29.98 in 10.0 mi SSW 4.6 mph - N/A   Mostly Cloudy
4:56 PM 73.9 °F 64.9 °F 73% 29.94 in 10.0 mi Calm Calm - N/A   Partly Cloudy
5:56 PM 72.0 °F 64.9 °F 78% 29.92 in 10.0 mi SSE 3.5 mph - N/A   Clear
6:56 PM 70.0 °F 64.9 °F 84% 29.93 in 10.0 mi Calm Calm - N/A   Clear
7:56 PM 69.1 °F 64.9 °F 87% 29.97 in 10.0 mi Calm Calm - N/A   Clear
8:56 PM 69.1 °F 66.0 °F 90% 29.97 in 10.0 mi Calm Calm - N/A   Clear
9:56 PM 68.0 °F 64.9 °F 90% 29.98 in 10.0 mi Calm Calm - N/A   Clear
10:56 PM 66.9 °F 64.0 °F 90% 29.98 in 10.0 mi Calm Calm - N/A   Clear
11:56 PM 66.0 °F 64.0 °F 93% 29.98 in 10.0 mi Calm Calm - N/A   Clear